Location: Newark
(23.1300°N, 73.6109°E)
Time: 04:20:23
(UTC+00:00)

Hubble Space Telescope - Pass Details

Date: 01 August 2021
Orbit: 535 x 539 km, 28.5° (Epoch: 19 September)

Event Time Altitude Azimuth Distance (km) Brightness Sun altitude
Rises 16:08:10 0° 283° (WNW) 2,668 5.3 -29.2°
Reaches altitude 10° 16:10:29 10° 277° (W) 1,776 4.1 -29.7°
Enters shadow 16:12:00 21° 268° (W) 1,235 3.0 -29.9°
